"2010-05-31 00:00:00",158860,5.841,103.7,2.225,0.267,16.12,106.9932,17.18,18.05,32.54,0,110.6,13.3,17.99,65.7
"2010-05-31 00:00:30",158861,5.996,105,5.568,0.334,16.11,106.9932,17.18,18.05,32.16,0,110.6,13.3,17.99,67.0
"2010-05-31 00:01:00",158862,5.59,103.4,3.871,0.349,16.15,106.9932,17.18,18.06,32.75,0,110.6,13.3,17.99,65.4
"2010-05-31 00:01:30",158863,5.88,94.3,3.776,0.526,16.19,106.9932,17.18,18.05,33.26,0,110.6,13.3,17.99,56.3
"2010-05-31 00:02:00",158864,5.755,108.1,11.57,1.007,16.14,106.993,17.18,18.06,32.8,0,110.6,13.3,17.99,70.1
"2010-05-31 00:02:30",158865,5.101,112.1,3.859,0.705,16.12,106.9924,17.18,18.04,32.3,0,110.6,13.3,17.99,74.1
"2010-05-31 00:03:00",158866,7.102,112.1,5.692,0.662,16.16,106.9932,17.18,18.05,32.41,0,110.6,13.3,17.99,74.1
"2010-05-31 00:03:30",158867,6.26,111.1,2.12,0.451,16.27,106.9932,17.18,18.07,32.8,0,110.6,13.3,17.99,73.1
"2010-05-31 00:04:00",158868,5.647,109.7,3.69,0.284,16.2,106.9932,17.18,18.07,32.1,0,110.6,13.3,17.99,71.7
"2010-05-31 00:04:30",158869,5.115,105.4,3.256,0.263,16.22,106.9932,17.18,18.08,33.33,0,110.6,13.3,17.99,67.4
"2010-05-31 00:05:00",158870,4.639,113.1,6.295,0.308,16.15,106.9932,17.18,18.09,32.36,0,110.6,13.3,17.99,75.1
"2010-05-31 00:05:30",158871,5.984,106.9,6.297,0.391,16.19,106.9932,17.18,18.08,32.08,0,110.6,13.3,17.99,68.9
"2010-05-31 00:06:00",158872,6.012,101.8,2.416,0.194,16.22,106.9932,17.18,18.08,31.81,0,110.6,13.3,17.99,63.8
"2010-05-31 00:06:30",158873,6.914,99.6,3.76,0.263,16.31,106.9932,17.18,18.1,31.88,0,110.6,13.3,17.99,61.6
"2010-05-31 00:07:00",158874,6.212,101.1,4.842,0.665,16.28,106.9944,17.18,18.1,32.08,0,110.6,13.3,17.99,63.1
"2010-05-31 00:07:30",158875,5.752,108.6,6.102,0.507,16.24,106.9981,17.19,18.12,32.35,0,110.6,13.3,18.00,70.6
"2010-05-31 00:08:00",158876,5.912,114.9,4.356,0.399,16.24,107.0028,17.2,18.12,32.07,0,110.6,13.3,18.01,76.9
"2010-05-31 00:08:30",158877,6.287,108,3.049,0.302,16.27,107.0102,17.22,18.12,31.61,0,110.6,13.3,18.03,70.0
"2010-05-31 00:09:00",158878,6.674,109.5,3.404,0.223,16.31,107.0229,17.25,18.13,31.38,0,110.6,13.3,18.07,71.5
"2010-05-31 00:09:30",158879,7.059,110.2,2.209,0.196,16.37,107.0276,17.27,18.15,30.97,0,110.6,13.3,18.08,72.2
"2010-05-31 00:10:00",158880,6.692,115.6,2.746,0.227,16.33,107.0273,17.27,18.15,30.98,0,110.6,13.31,18.08,77.6
"2010-05-31 00:10:30",158881,6.164,117.7,2.139,0.335,16.32,107.0298,17.27,18.18,30.53,0,110.6,13.31,18.08,79.7
"2010-05-31 00:11:00",158882,5.229,109.7,6.218,0.82,16.32,107.0428,17.31,18.19,31.17,0,110.6,13.31,18.12,71.7
"2010-05-31 00:11:30",158883,6.511,112.6,11.07,0.764,16.4,107.0578,17.34,18.2,31.58,0,110.6,13.31,18.16,74.6
"2010-05-31 00:12:00",158884,6.482,118,5.092,0.888,16.51,107.062,17.35,18.22,31.32,0,110.6,13.3,18.17,80.0
"2010-05-31 00:12:30",158885,6.33,118.2,4.821,0.509,16.46,107.0617,17.35,18.25,31.29,0,110.6,13.3,18.17,80.2
"2010-05-31 00:13:00",158886,6.02,107.9,3.267,0.267,16.4,107.0632,17.36,18.25,31.21,0,110.6,13.3,18.17,69.9
"2010-05-31 00:13:30",158887,6.47,116.1,4.475,0.322,16.45,107.07,17.37,18.27,31.19,0,110.6,13.3,18.19,78.1
"2010-05-31 00:14:00",158888,6.541,111.9,3.56,0.301,16.45,107.0798,17.4,18.29,31.38,0,110.6,13.3,18.21,73.9
"2010-05-31 00:14:30",158889,6.174,117.5,4.758,0.365,16.45,107.0909,17.43,18.3,31.6,0,110.6,13.3,18.24,79.5
"2010-05-31 00:15:00",158890,5.847,113.2,3.751,0.411,16.4,107.0905,17.43,18.29,31.53,0,110.6,13.3,18.24,75.2
"2010-05-31 00:15:30",158891,6.177,116.3,3.092,0.215,16.33,107.0923,17.43,18.3,30.79,0,110.6,13.31,18.24,78.3
"2010-05-31 00:16:00",158892,5.792,113.8,4.321,0.16,16.32,107.0965,17.44,18.32,30.76,0,110.6,13.31,18.26,75.8
"2010-05-31 00:16:30",158893,5.523,109.9,2.547,0.239,16.31,107.0993,17.45,18.33,30.74,0,110.6,13.31,18.26,71.9
"2010-05-31 00:17:00",158894,6.761,103.6,7.472,0.39,16.4,107.0979,17.45,18.32,30.86,0,110.6,13.31,18.26,65.6
"2010-05-31 00:17:30",158895,6.628,101.4,3.868,0.52,16.43,107.1027,17.46,18.32,31.14,0,110.6,13.3,18.27,63.4
"2010-05-31 00:18:00",158896,5.43,117,5.22,0.301,16.38,107.1069,17.47,18.34,30.68,0,110.6,13.3,18.28,79.0
"2010-05-31 00:18:30",158897,5.23,120.5,3.091,0.41,16.35,107.1042,17.46,18.35,30.8,0,110.6,13.31,18.28,82.5
"2010-05-31 00:19:00",158898,5.811,116.7,8.38,0.398,16.36,107.1033,17.46,18.35,30.71,0,110.6,13.31,18.27,78.7
"2010-05-31 00:19:30",158899,5.565,100.6,6.018,0.519,16.42,107.1018,17.46,18.34,30.75,0,110.6,13.3,18.27,62.6
"2010-05-31 00:20:00",158900,5.642,108.1,4.788,0.34,16.41,107.1036,17.46,18.35,31.08,0,110.6,13.3,18.27,70.1
"2010-05-31 00:20:30",158901,5.788,112.7,3.283,0.309,16.36,107.1054,17.47,18.35,31.19,0,110.6,13.3,18.28,74.7
"2010-05-31 00:21:00",158902,6.443,116.2,4.464,0.255,16.46,107.1073,17.47,18.36,31.06,0,110.6,13.3,18.28,78.2
"2010-05-31 00:21:30",158903,6.79,121.1,7.279,0.437,16.48,107.1073,17.47,18.35,30.87,0,110.6,13.3,18.28,83.1
"2010-05-31 00:22:00",158904,6.356,117.3,6.551,0.25,16.52,107.1057,17.47,18.36,30.5,0,110.6,13.3,18.28,79.3
"2010-05-31 00:22:30",158905,6.25,122.3,3.555,0.141,16.55,107.1036,17.46,18.36,29.6,0,110.6,13.3,18.27,84.3
"2010-05-31 00:23:00",158906,6.476,128.9,3.932,0.278,16.68,107.1231,17.51,18.37,28.7,0,110.6,13.3,18.32,90.9
"2010-05-31 00:23:30",158907,6.66,116.9,4.277,0.485,16.64,107.1362,17.54,18.39,28.6,0,110.6,13.3,18.36,78.9
"2010-05-31 00:24:00",158908,7.014,119.5,12.27,0.969,16.59,107.1347,17.54,18.42,29.47,0,110.6,13.3,18.35,81.5
"2010-05-31 00:24:30",158909,6.168,110.5,5.453,0.614,16.53,107.1407,17.56,18.45,29.83,0,110.6,13.3,18.37,72.5
"2010-05-31 00:25:00",158910,6.181,126,8.12,0.627,16.51,107.1416,17.56,18.46,30.76,0,110.6,13.3,18.37,88.0
"2010-05-31 00:25:30",158911,5.864,120.1,3.656,0.323,16.54,107.1398,17.55,18.46,30.96,0,110.6,13.3,18.37,82.1
"2010-05-31 00:26:00",158912,5.614,124.7,5.003,0.378,16.52,107.1404,17.56,18.47,31.77,0,110.6,13.3,18.37,86.7
"2010-05-31 00:26:30",158913,6.345,116,6.938,0.399,16.6,107.1383,17.55,18.48,31.13,0,110.6,13.3,18.36,78.0
"2010-05-31 00:27:00",158914,5.931,133.6,5.981,0.65,16.57,107.1526,17.59,18.48,30.43,0,110.6,13.3,18.40,95.6
"2010-05-31 00:27:30",158915,6.737,137.9,1.181,0.508,16.72,107.1636,17.61,18.48,29.26,0,110.6,13.3,18.43,99.9
"2010-05-31 00:28:00",158916,6.951,133.3,3.213,0.769,16.62,107.1697,17.63,18.51,29.73,0,110.6,13.3,18.44,95.3
"2010-05-31 00:28:30",158917,6.53,131.8,3.277,0.368,16.72,107.1664,17.62,18.5,29.44,0,110.6,13.3,18.44,93.8
"2010-05-31 00:29:00",158918,6.788,130.6,2.072,0.286,16.76,107.1694,17.63,18.53,28.84,0,110.6,13.3,18.44,92.6
"2010-05-31 00:29:30",158919,6.409,131,3.14,0.48,16.79,107.1913,17.69,18.55,29.59,0,110.6,13.3,18.50,93.0
"2010-05-31 00:30:00",158920,7.261,131.3,2.556,0.525,16.8,107.1984,17.7,18.56,28.95,0,110.6,13.3,18.52,93.3
"2010-05-31 00:30:30",158921,7.37,132,2.649,0.319,16.81,107.1972,17.7,18.58,28.98,0,110.6,13.3,18.51,94.0
"2010-05-31 00:31:00",158922,6.289,125.8,2.605,0.346,16.83,107.2019,17.71,18.6,29.53,0,110.6,13.3,18.53,87.8
"2010-05-31 00:31:30",158923,7.021,126.6,4.019,0.39,16.82,107.2146,17.75,18.62,29.74,0,110.6,13.3,18.56,88.6
"2010-05-31 00:32:00",158924,7.509,125.8,2.097,0.167,16.81,107.2295,17.78,18.65,29.3,0,110.6,13.3,18.60,87.8
"2010-05-31 00:32:30",158925,7.855,127.8,3.297,0.329,16.78,107.2297,17.78,18.66,28.05,0,110.6,13.3,18.60,89.8
"2010-05-31 00:33:00",158926,8.4,128.5,1.572,0.352,16.83,107.2297,17.78,18.67,27.91,0,110.6,13.3,18.60,90.5
"2010-05-31 00:33:30",158927,7.749,126.2,2.706,0.345,16.85,107.2306,17.79,18.68,27.81,0,110.6,13.3,18.60,88.2
"2010-05-31 00:34:00",158928,7.67,131.1,2.115,0.445,16.87,107.2413,17.81,18.69,27.9,0,110.6,13.3,18.63,93.1
"2010-05-31 00:34:30",158929,8.14,133,3.361,0.312,16.87,107.261,17.86,18.74,28,0,110.6,13.3,18.68,95.0
"2010-05-31 00:35:00",158930,7.766,133.3,1.445,0.26,16.87,107.2635,17.87,18.74,28.18,0,110.6,13.3,18.69,95.3
"2010-05-31 00:35:30",158931,7.752,135.2,3.777,0.398,16.87,107.2635,17.87,18.75,28.27,0,110.6,13.3,18.69,97.2
"2010-05-31 00:36:00",158932,7.769,137.1,1.502,0.203,16.9,107.2646,17.87,18.78,27.44,0,110.6,13.3,18.69,99.1
"2010-05-31 00:36:30",158933,7.369,136.2,4.34,0.266,16.9,107.2801,17.91,18.8,27.42,0,110.6,13.3,18.73,98.2
"2010-05-31 00:37:00",158934,7.503,133.7,2.834,0.391,16.9,107.2967,17.96,18.81,27.51,0,110.6,13.3,18.77,95.7
"2010-05-31 00:37:30",158935,7.146,140.2,2.049,0.535,16.89,107.2976,17.96,18.83,27.28,0,110.6,13.3,18.77,102.2
"2010-05-31 00:38:00",158936,7.016,137.7,3.561,0.237,16.87,107.2973,17.96,18.85,27.29,0,110.6,13.3,18.77,99.7
"2010-05-31 00:38:30",158937,7.32,135.4,2.864,0.256,16.86,107.2979,17.96,18.86,27.32,0,110.6,13.3,18.77,97.4
"2010-05-31 00:39:00",158938,6.998,141.3,4.125,0.367,16.83,107.3024,17.97,18.88,27.33,0,110.6,13.29,18.79,103.3
"2010-05-31 00:39:30",158939,7.709,140.4,2.725,0.425,16.87,107.308,17.98,18.88,27.5,0,110.6,13.29,18.80,102.4
"2010-05-31 00:40:00",158940,8.03,136,2.049,0.289,16.92,107.3136,18,18.89,27.56,0,110.6,13.29,18.81,98.0
"2010-05-31 00:40:30",158941,7.364,140.9,2.379,0.329,16.93,107.3238,18.03,18.91,27.4,0,110.6,13.29,18.84,102.9
"2010-05-31 00:41:00",158942,7.58,139.2,1.949,0.262,16.95,107.3308,18.04,18.92,27.58,0,110.6,13.29,18.86,101.2
"2010-05-31 00:41:30",158943,7.289,138.5,3.896,0.424,16.96,107.3311,18.04,18.93,27.31,0,110.6,13.29,18.86,100.5
"2010-05-31 00:42:00",158944,6.688,130.5,4.811,0.457,16.91,107.3311,18.04,18.95,27.95,0,110.6,13.29,18.86,92.5
"2010-05-31 00:42:30",158945,6.358,134.3,2.79,0.48,16.88,107.3311,18.04,18.94,28.19,0,110.6,13.3,18.86,96.3
"2010-05-31 00:43:00",158946,6.926,137.1,4.519,0.265,16.88,107.3311,18.04,18.94,27.84,0,110.6,13.3,18.86,99.1
"2010-05-31 00:43:30",158947,7.197,127.8,3.578,0.269,16.93,107.3311,18.04,18.96,27.78,0,110.6,13.3,18.86,89.8
"2010-05-31 00:44:00",158948,7.745,132.7,2.296,0.334,16.84,107.3311,18.04,18.94,27.75,0,110.6,13.3,18.86,94.7
"2010-05-31 00:44:30",158949,7.321,130.4,1.252,0.212,16.88,107.3311,18.04,18.94,27.77,0,110.6,13.3,18.86,92.4
"2010-05-31 00:45:00",158950,7.23,132.4,2.999,0.331,16.89,107.3311,18.04,18.94,27.81,0,110.6,13.3,18.86,94.4
"2010-05-31 00:45:30",158951,6.735,124,3.421,0.309,16.88,107.3311,18.04,18.94,27.92,0,110.6,13.3,18.86,86.0
"2010-05-31 00:46:00",158952,7.374,132.3,4.63,0.237,16.87,107.3311,18.04,18.94,27.96,0,110.6,13.3,18.86,94.3
"2010-05-31 00:46:30",158953,7.258,137.7,2.757,0.352,16.85,107.3305,18.04,18.94,27.83,0,110.6,13.3,18.86,99.7
"2010-05-31 00:47:00",158954,6.859,140.4,1.481,0.129,16.86,107.3291,18.04,18.93,27.59,0,110.6,13.3,18.85,102.4
"2010-05-31 00:47:30",158955,7.017,137.1,2.279,0.212,16.88,107.3305,18.04,18.93,27.57,0,110.6,13.3,18.86,99.1
"2010-05-31 00:48:00",158956,7.421,135.2,2.908,0.312,16.93,107.3311,18.04,18.94,27.85,0,110.6,13.3,18.86,97.2
"2010-05-31 00:48:30",158957,6.614,137.2,3.061,0.307,16.92,107.3311,18.04,18.93,27.6,0,110.6,13.3,18.86,99.2
"2010-05-31 00:49:00",158958,7.378,132.6,1.411,0.239,16.83,107.3311,18.04,18.94,27.83,0,110.6,13.3,18.86,94.6
"2010-05-31 00:49:30",158959,6.059,141.3,3.87,0.456,16.86,107.3311,18.04,18.95,27.62,0,110.6,13.3,18.86,103.3
"2010-05-31 00:50:00",158960,6.13,143.2,1.669,0.299,16.88,107.3311,18.04,18.93,27.64,0,110.6,13.3,18.86,105.2
"2010-05-31 00:50:30",158961,5.942,139.9,1.934,0.262,16.93,107.3311,18.04,18.95,27.47,0,110.6,13.3,18.86,101.9
"2010-05-31 00:51:00",158962,6.024,137.7,2.7,0.466,16.81,107.3311,18.04,18.96,27.38,0,110.6,13.3,18.86,99.7
"2010-05-31 00:51:30",158963,6.485,135.4,3.297,0.287,16.85,107.3314,18.04,18.95,27.32,0,110.6,13.3,18.86,97.4
"2010-05-31 00:52:00",158964,6.202,141.8,4.244,0.201,16.87,107.3333,18.05,18.98,27.24,0,110.6,13.3,18.86,103.8
"2010-05-31 00:52:30",158965,6.349,136.7,2.382,0.367,16.82,107.3468,18.08,18.97,27.29,0,110.6,13.3,18.90,98.7
"2010-05-31 00:53:00",158966,6.671,139.3,1.813,0.169,16.87,107.3615,18.12,18.98,27.24,0,110.6,13.3,18.94,101.3
"2010-05-31 00:53:30",158967,6.605,141,1.893,0.236,16.86,107.3646,18.13,18.98,27.19,0,110.6,13.3,18.95,103.0
"2010-05-31 00:54:00",158968,6.742,137.8,2.481,0.289,16.9,107.3649,18.13,18.99,27.3,0,110.6,13.3,18.95,99.8
"2010-05-31 00:54:30",158969,6.585,135.4,1.57,0.212,16.89,107.3649,18.13,19,27.17,0,110.6,13.29,18.95,97.4
"2010-05-31 00:55:00",158970,6.699,141.4,4.945,0.242,16.94,107.3649,18.13,19.01,27.24,0,110.6,13.29,18.95,103.4
"2010-05-31 00:55:30",158971,6.69,144.7,1.06,0.189,16.9,107.3649,18.13,19.03,27.41,0,110.6,13.29,18.95,106.7
"2010-05-31 00:56:00",158972,7.081,143.8,1.853,0.321,16.93,107.3649,18.13,19.03,27.45,0,110.6,13.29,18.95,105.8
"2010-05-31 00:56:30",158973,6.694,142,2.898,0.239,16.94,107.3649,18.13,19.03,27.37,0,110.6,13.29,18.95,104.0
"2010-05-31 00:57:00",158974,6.799,135.9,1.95,0.14,16.93,107.3649,18.13,19.03,27.34,0,110.6,13.29,18.95,97.9
"2010-05-31 00:57:30",158975,7.223,133.4,2.364,0.288,16.99,107.3649,18.13,19.05,27.49,0,110.6,13.28,18.95,95.4
"2010-05-31 00:58:00",158976,7.35,132.7,1.827,0.324,17.02,107.3654,18.13,19.04,27.45,0,110.6,13.29,18.95,94.7
"2010-05-31 00:58:30",158977,7.005,137.6,4.167,0.311,16.92,107.3682,18.14,19.05,27.47,0,110.6,13.28,18.95,99.6
"2010-05-31 00:59:00",158978,7.157,144.7,2.74,0.386,17.01,107.3744,18.16,19.06,27.57,0,110.6,13.28,18.97,106.7
"2010-05-31 00:59:30",158979,7.242,136.9,1.949,0.16,17.03,107.3806,18.17,19.06,27.57,0,110.6,13.29,18.99,98.9
"2010-05-31 01:00:00",158980,6.97,137,2.966,0.255,16.96,107.3882,18.19,19.06,27.58,0,110.6,13.29,19.01,99.0
"2010-05-31 01:00:30",158981,6.899,139.7,3.538,0.169,16.99,107.3905,18.2,19.06,27.59,0,110.6,13.29,19.01,101.7
"2010-05-31 01:01:00",158982,6.906,140.3,1.873,0.148,17.12,107.395,18.21,19.08,27.48,0,110.6,13.29,19.02,102.3
"2010-05-31 01:01:30",158983,6.435,144.1,3.362,0.309,17.05,107.3987,18.22,19.08,27.45,0,110.6,13.3,19.03,106.1
"2010-05-31 01:02:00",158984,6.823,141.5,2.964,0.278,17.03,107.3987,18.22,19.08,27.5,0,110.6,13.29,19.03,103.5
"2010-05-31 01:02:30",158985,6.997,136.1,1.574,0.222,17.07,107.3987,18.22,19.1,27.44,0,110.6,13.3,19.03,98.1
"2010-05-31 01:03:00",158986,6.937,144.5,1.919,0.201,17.06,107.3987,18.22,19.11,27.64,0,110.6,13.29,19.03,106.5
"2010-05-31 01:03:30",158987,6.666,143.1,3.058,0.501,17.05,107.3987,18.22,19.1,27.41,0,110.6,13.29,19.03,105.1
"2010-05-31 01:04:00",158988,6.467,152.3,6.848,0.79,17.14,107.4026,18.23,19.12,27.48,0,110.6,13.29,19.04,114.3
"2010-05-31 01:04:30",158989,6.791,152.8,2.733,0.674,17.17,107.4206,18.27,19.13,27.35,0,110.6,13.29,19.09,114.8
"2010-05-31 01:05:00",158990,7.222,149.1,2.127,0.704,17.14,107.4319,18.3,19.12,27.36,0,110.6,13.3,19.12,111.1
"2010-05-31 01:05:30",158991,7.503,146.3,3.049,0.24,17.07,107.4324,18.3,19.14,27.49,0,110.6,13.29,19.12,108.3
"2010-05-31 01:06:00",158992,7.242,150.6,2.404,0.213,17.14,107.4324,18.3,19.16,27.57,0,110.6,13.29,19.12,112.6
"2010-05-31 01:06:30",158993,7.803,145.8,2.54,0.332,17.08,107.4324,18.3,19.16,27.62,0,110.6,13.29,19.12,107.8
"2010-05-31 01:07:00",158994,7.832,151.6,2.612,0.26,17.19,107.4324,18.3,19.16,27.5,0,110.6,13.29,19.12,113.6
"2010-05-31 01:07:30",158995,7.69,146.7,1.045,0.094,17.02,107.4324,18.3,19.16,27.54,0,110.6,13.29,19.12,108.7
"2010-05-31 01:08:00",158996,7.918,145.5,1.84,0.29,17.02,107.4324,18.3,19.18,27.75,0,110.6,13.29,19.12,107.5
"2010-05-31 01:08:30",158997,7.97,144.8,1.259,0.206,17.03,107.4324,18.3,19.18,27.77,0,110.6,13.29,19.12,106.8
"2010-05-31 01:09:00",158998,8.84,147.2,1.222,0.262,17.02,107.4324,18.3,19.18,27.63,0,110.6,13.29,19.12,109.2
"2010-05-31 01:09:30",158999,8.46,149.2,1.904,0.234,17.14,107.4324,18.3,19.17,27.63,0,110.6,13.29,19.12,111.2
"2010-05-31 01:10:00",159000,8.65,151.3,1.401,0.401,17.24,107.4316,18.3,19.16,27.76,0,110.6,13.3,19.12,113.3
"2010-05-31 01:10:30",159001,8.74,152.3,1.643,0.305,17.17,107.4313,18.3,19.17,27.65,0,110.6,13.3,19.12,114.3
"2010-05-31 01:11:00",159002,8.49,156.5,1.932,0.237,17.22,107.4316,18.3,19.17,27.69,0,110.6,13.3,19.12,118.5
"2010-05-31 01:11:30",159003,8.31,157.3,1.388,0.22,17.19,107.431,18.3,19.17,27.73,0,110.6,13.29,19.12,119.3
"2010-05-31 01:12:00",159004,8.5,155.5,1.495,0.131,17.19,107.4313,18.3,19.17,27.36,0,110.6,13.29,19.12,117.5
"2010-05-31 01:12:30",159005,9.04,156.1,1.568,0.236,17.25,107.4285,18.29,19.17,27.5,0,110.6,13.29,19.11,118.1
"2010-05-31 01:13:00",159006,8.98,156.7,1.74,0.227,17.2,107.4279,18.29,19.17,27.74,0,110.6,13.28,19.11,118.7
"2010-05-31 01:13:30",159007,9.1,156.1,1.097,0.236,17.27,107.4243,18.28,19.17,27.66,0,110.6,13.28,19.10,118.1
"2010-05-31 01:14:00",159008,9.02,154.2,2.377,0.458,17.24,107.4231,18.28,19.18,27.8,0,110.6,13.29,19.10,116.2
"2010-05-31 01:14:30",159009,8.72,159.6,2.7,0.671,17.28,107.4102,18.25,19.15,27.83,0,110.6,13.28,19.06,121.6
"2010-05-31 01:15:00",159010,9.56,160.8,2.695,0.355,17.34,107.4006,18.22,19.17,27.69,0,110.6,13.29,19.04,122.8
"2010-05-31 01:15:30",159011,9.34,163.6,2.329,0.342,17.43,107.3989,18.22,19.15,27.65,0,110.6,13.29,19.03,125.6
"2010-05-31 01:16:00",159012,9.11,164.2,0.72,0.176,17.43,107.4001,18.22,19.16,27.48,0,110.6,13.29,19.04,126.2
"2010-05-31 01:16:30",159013,9.33,163.6,1.076,0.231,17.42,107.4032,18.23,19.16,27.39,0,110.6,13.29,19.04,125.6
"2010-05-31 01:17:00",159014,8.85,161.6,2.008,0.237,17.34,107.4015,18.22,19.17,27.74,0,110.6,13.3,19.04,123.6
"2010-05-31 01:17:30",159015,8.6,164.8,1.434,0.326,17.41,107.3987,18.22,19.17,27.26,0,110.6,13.3,19.03,126.8
"2010-05-31 01:18:00",159016,8.3,162.7,1.456,0.189,17.4,107.3995,18.22,19.17,27.25,0,110.6,13.3,19.04,124.7
"2010-05-31 01:18:30",159017,8.25,162,1.219,0.211,17.3,107.3987,18.22,19.18,27.32,0,110.6,13.3,19.03,124.0
"2010-05-31 01:19:00",159018,8.3,164,1.417,0.211,17.38,107.3998,18.22,19.16,27.33,0,110.6,13.3,19.04,126.0
"2010-05-31 01:19:30",159019,8.09,165.3,1.324,0.232,17.41,107.402,18.23,19.17,27.32,0,110.6,13.3,19.04,127.3
"2010-05-31 01:20:00",159020,7.863,164.9,1.308,0.163,17.4,107.4032,18.23,19.16,27.46,0,110.6,13.3,19.04,126.9
"2010-05-31 01:20:30",159021,7.92,162.6,2.365,0.229,17.36,107.4065,18.24,19.17,27.52,0,110.6,13.3,19.05,124.6
"2010-05-31 01:21:00",159022,8.31,162.7,1.751,0.205,17.37,107.4057,18.24,19.16,27.49,0,110.6,13.3,19.05,124.7
"2010-05-31 01:21:30",159023,7.815,166.8,1.207,0.419,17.43,107.4032,18.23,19.18,27.43,0,110.6,13.3,19.04,128.8
"2010-05-31 01:22:00",159024,7.269,162.8,1.663,0.331,17.32,107.3989,18.22,19.16,27.45,0,110.6,13.3,19.03,124.8
"2010-05-31 01:22:30",159025,8.58,162.7,3.656,0.392,17.35,107.3987,18.22,19.17,27.65,0,110.6,13.3,19.03,124.7
"2010-05-31 01:23:00",159026,8.43,158.1,2.803,0.537,17.28,107.3987,18.22,19.17,27.99,0,110.6,13.3,19.03,120.1
"2010-05-31 01:23:30",159027,8.68,154.6,1.849,0.329,17.26,107.3987,18.22,19.16,27.98,0,110.6,13.3,19.03,116.6
"2010-05-31 01:24:00",159028,9.57,168.7,3.662,0.334,17.6,107.3987,18.22,19.15,27.89,0,110.6,13.3,19.03,130.7
"2010-05-31 01:24:30",159029,9.88,167.9,2.414,0.753,17.59,107.3987,18.22,19.15,27.98,0,110.6,13.3,19.03,129.9
"2010-05-31 01:25:00",159030,9.9,166.8,1.755,0.264,17.65,107.3987,18.22,19.14,27.77,0,110.6,13.3,19.03,128.8
"2010-05-31 01:25:30",159031,9.41,177.4,7.24,0.368,17.72,107.3992,18.22,19.16,27.63,0,110.6,13.3,19.03,139.4
"2010-05-31 01:26:00",159032,9.21,180.4,10.13,0.414,17.66,107.417,18.26,19.17,27.54,0,110.6,13.3,19.08,142.4
"2010-05-31 01:26:30",159033,9.03,166.9,1.328,0.258,17.49,107.4265,18.29,19.19,27.75,0,110.6,13.31,19.10,128.9
"2010-05-31 01:27:00",159034,8.71,168.6,1.087,0.174,17.53,107.4244,18.28,19.19,27.84,0,110.6,13.31,19.10,130.6
"2010-05-31 01:27:30",159035,8.64,167.9,0.975,0.365,17.54,107.4095,18.25,19.17,27.89,0,110.6,13.31,19.06,129.9
"2010-05-31 01:28:00",159036,9.02,165.9,1.814,0.176,17.5,107.4071,18.24,19.18,27.96,0,110.6,13.3,19.05,127.9
"2010-05-31 01:28:30",159037,8.66,167.5,2.615,0.497,17.51,107.4062,18.24,19.17,28.05,0,110.6,13.3,19.05,129.5
"2010-05-31 01:29:00",159038,9.49,167,3.156,0.358,17.55,107.4098,18.25,19.17,28.16,0,110.6,13.3,19.06,129.0
"2010-05-31 01:29:30",159039,9.38,166.9,3.185,0.179,17.5,107.4162,18.26,19.16,28.35,0,110.6,13.3,19.08,128.9
"2010-05-31 01:30:00",159040,8.95,166.1,2.712,0.3,17.49,107.4177,18.27,19.15,28.46,0,110.6,13.3,19.08,128.1
"2010-05-31 01:30:30",159041,9.37,162.7,5.25,0.555,17.43,107.4058,18.24,19.14,27.99,0,110.6,13.3,19.05,124.7
"2010-05-31 01:31:00",159042,8.29,168.3,2.033,0.649,17.48,107.3864,18.19,19.12,28.27,0,110.6,13.3,19.00,130.3
"2010-05-31 01:31:30",159043,7.908,169.1,3.827,0.34,17.55,107.3863,18.19,19.11,28.28,0,110.6,13.3,19.00,131.1
"2010-05-31 01:32:00",159044,8.54,170.8,4.708,0.798,17.45,107.3881,18.19,19.11,28.56,0,110.6,13.3,19.01,132.8
"2010-05-31 01:32:30",159045,9.1,175.8,5.175,0.369,17.55,107.3894,18.19,19.1,28.42,0,110.6,13.3,19.01,137.8
"2010-05-31 01:33:00",159046,8.7,175.8,3.545,0.528,17.52,107.3903,18.2,19.08,28.76,0,110.6,13.3,19.01,137.8
"2010-05-31 01:33:30",159047,9.56,177.7,1.746,0.241,17.65,107.3912,18.2,19.07,28.15,0,110.6,13.3,19.01,139.7
"2010-05-31 01:34:00",159048,9.39,179.4,1.298,0.264,17.61,107.3933,18.2,19.07,28.08,0,110.6,13.31,19.02,141.4
"2010-05-31 01:34:30",159049,10.01,177.9,1.312,0.296,17.6,107.393,18.2,19.08,28.06,0,110.6,13.31,19.02,139.9
"2010-05-31 01:35:00",159050,9.84,184.1,4.066,0.485,17.61,107.393,18.2,19.09,28.34,0,110.6,13.31,19.02,146.1
"2010-05-31 01:35:30",159051,9.39,182.8,1.621,0.422,17.62,107.3966,18.21,19.09,28.34,0,110.6,13.31,19.03,144.8
"2010-05-31 01:36:00",159052,9.24,188.2,3.692,0.338,17.68,107.3984,18.22,19.1,28.25,0,110.6,13.31,19.03,150.2
"2010-05-31 01:36:30",159053,8.95,187.2,4.003,0.482,17.59,107.3996,18.22,19.1,28.44,0,110.6,13.31,19.04,149.2
"2010-05-31 01:37:00",159054,8.56,181.6,2.02,0.355,17.54,107.4008,18.22,19.09,28.58,0,110.6,13.31,19.04,143.6
"2010-05-31 01:37:30",159055,8.76,185.1,2.513,0.325,17.6,107.3997,18.22,19.07,28.57,0,110.6,13.31,19.04,147.1
"2010-05-31 01:38:00",159056,9.52,182.6,1.357,0.294,17.58,107.3961,18.21,19.06,28.18,0,110.6,13.31,19.03,144.6
"2010-05-31 01:38:30",159057,9.32,183.5,1.353,0.192,17.64,107.393,18.2,19.07,28.17,0,110.6,13.31,19.02,145.5
"2010-05-31 01:39:00",159058,8.81,188.2,2.524,0.479,17.59,107.3857,18.18,19.07,28.56,0,110.6,13.31,19.00,150.2
"2010-05-31 01:39:30",159059,8.62,187,1.949,0.371,17.64,107.371,18.15,19.06,28.47,0,110.6,13.31,18.96,149.0
"2010-05-31 01:40:00",159060,9.31,186.7,1.072,0.266,17.71,107.3676,18.14,19.06,28.13,0,110.6,13.31,18.95,148.7
"2010-05-31 01:40:30",159061,9.81,184.9,1.363,0.147,17.67,107.3673,18.14,19.06,28.15,0,110.6,13.31,18.95,146.9
"2010-05-31 01:41:00",159062,9.48,183.1,2.965,0.392,17.65,107.3676,18.14,19.05,28.23,0,110.6,13.31,18.95,145.1
"2010-05-31 01:41:30",159063,9.19,185.2,3.259,0.562,17.62,107.3673,18.14,19.04,28.46,0,110.5,13.31,18.95,147.2
"2010-05-31 01:42:00",159064,9.48,186.6,1.42,0.144,17.72,107.3673,18.14,19.04,28.28,0,110.5,13.31,18.95,148.6
"2010-05-31 01:42:30",159065,8.9,187.2,1.838,0.296,17.62,107.3673,18.14,19.03,28.54,0,110.5,13.31,18.95,149.2
"2010-05-31 01:43:00",159066,8.94,183.6,1.433,0.246,17.67,107.3673,18.14,19.03,28.25,0,110.5,13.31,18.95,145.6
"2010-05-31 01:43:30",159067,8.84,184.2,3.163,0.268,17.67,107.3673,18.14,19.03,28.28,0,110.5,13.31,18.95,146.2
"2010-05-31 01:44:00",159068,8.34,181.1,4.62,0.507,17.63,107.3673,18.14,19.03,28.38,0,110.5,13.32,18.95,143.1
"2010-05-31 01:44:30",159069,9.25,182,1.545,0.197,17.65,107.3673,18.14,19.04,28.39,0,110.5,13.31,18.95,144.0
"2010-05-31 01:45:00",159070,8.84,182.1,2.847,0.438,17.68,107.3673,18.14,19.02,28.45,0,110.6,13.31,18.95,144.1
"2010-05-31 01:45:30",159071,9.13,179.2,2.466,0.229,17.64,107.3673,18.14,19.02,28.48,0,110.5,13.31,18.95,141.2
"2010-05-31 01:46:00",159072,9.12,179.7,1.124,0.243,17.66,107.3668,18.14,19.01,28.55,0,110.5,13.31,18.95,141.7
"2010-05-31 01:46:30",159073,9.29,179.1,2.223,0.32,17.67,107.3459,18.08,19,28.49,0,110.6,13.31,18.90,141.1
"2010-05-31 01:47:00",159074,9.24,179,1.046,0.256,17.63,107.335,18.05,19.01,28.79,0,110.6,13.31,18.87,141.0
"2010-05-31 01:47:30",159075,9.46,183.8,3.621,0.372,17.83,107.3335,18.05,19,28.57,0,110.5,13.31,18.87,145.8
"2010-05-31 01:48:00",159076,9.63,179.6,1.796,0.405,17.78,107.3335,18.05,18.99,28.47,0,110.6,13.31,18.87,141.6
"2010-05-31 01:48:30",159077,9.65,183.5,1.087,0.224,17.84,107.3335,18.05,18.99,28.47,0,110.5,13.31,18.87,145.5
"2010-05-31 01:49:00",159078,9.92,181.6,2.226,0.343,17.8,107.3335,18.05,18.98,28.49,0,110.5,13.31,18.87,143.6